Retour au catalogue

COSMOS 970 DEB

ActifLEO
NORAD 10567·DEBRIS·🇷🇺 Russia

Lancé Dec 21, 1977 depuis Baikonur Cosmodrome

Loading…

Prochains Passages (prochaines 24 heures)

TLE

FraisSource: Space-Track

Époque: Sep 14, 2026, 09:18 UTC

1 10567U 77121J   26257.38774564 -.00000039  00000-0  52816-4 0  9992
2 10567  65.7922 250.8686 0092799  77.4504  69.5228 13.55486202409922

Suivez COSMOS 970 DEB en temps réel avec AllMySat

Download on the App Store